Wind_Speed
9 9 9 9 9 10 10 10 9 8 7 7 7 7 6 6 5 5 4 4 3 4 4 4 4 4 4 4 3 3 2 3 2 1 1 1 2 2 1 1 1 2 1
9 9 9 9 10 10 10 10 9 9 8 8 7 7 6 6 5 5 4 3 3 3 4 3 3 4 4 4 4 4 3 2 2 1 1 1 1 1 1 1 1 1 1
9 9 9 9 9 10 10 10 10 9 9 9 8 7 6 5 5 4 4 3 2 2 2 2 3 4 4 4 5 4 3 2 2 2 1 1 1 1 1 1 1 1 2
9 10 10 10 10 10 10 10 10 10 9 9 8 7 6 5 4 4 3 3 2 2 1 1 2 3 4 4 4 4 3 3 2 2 2 2 1 2 2 1 2 2 2
10 9 9 10 10 10 10 10 10 9 9 9 8 7 7 6 5 4 3 3 2 1 2 1 2 3 4 3 3 4 3 3 2 2 2 2 1 2 2 2 2 2 1
10 10 9 9 10 10 10 10 10 9 9 8 7 7 6 6 5 5 4 3 2 1 2 2 2 3 3 3 3 3 2 2 2 2 2 2 2 2 2 2 3 2 2
12 11 10 10 10 10 10 10 9 9 9 8 7 6 5 5 5 4 3 3 2 1 1 2 2 2 2 3 3 3 3 2 2 2 3 3 3 3 3 3 4 3 3
12 12 11 10 10 10 10 9 9 9 9 8 7 6 5 4 4 3 3 2 1 1 1 1 2 2 2 3 3 3 3 2 3 3 3 3 3 3 4 5 5 5 4
12 12 11 10 10 10 10 9 8 8 8 8 7 6 5 4 4 3 2 2 2 1 1 1 2 2 3 3 3 3 4 3 4 3 3 3 3 3 3 4 5 5 4
12 11 11 10 10 10 9 9 8 8 8 7 6 5 5 4 3 3 2 2 2 2 2 2 3 3 4 4 4 5 5 5 5 4 4 4 4 4 4 4 4 4 4
11 11 11 11 10 10 10 9 8 8 8 7 6 5 5 4 3 3 3 2 2 3 3 3 3 4 5 5 5 6 6 6 6 6 6 5 5 5 5 4 4 4 4
11 11 11 11 10 10 10 9 8 7 7 8 7 6 5 4 3 3 3 2 2 3 3 3 3 4 5 6 6 7 8 8 8 7 7 6 6 6 6 6 5 5 5
11 11 11 10 10 10 10 10 9 8 8 8 7 6 6 4 3 3 3 3 2 3 3 3 4 5 5 7 8 8 9 9 10 9 8 7 7 7 7 8 7 6 6
12 11 10 10 9 9 9 9 10 9 8 8 7 7 6 6 4 4 4 3 3 3 3 4 5 6 7 8 8 9 10 10 10 10 9 9 9 9 8 8 8 8 8
11 11 10 10 10 10 10 10 10 9 8 8 7 7 7 6 6 6 5 4 4 4 4 5 5 6 6 7 8 8 9 9 10 10 10 10 10 10 10 9 9 9 9
11 11 10 9 9 9 9 10 10 10 9 8 8 7 7 7 6 6 5 5 5 4 5 5 5 7 7 7 8 9 9 9 10 10 10 10 11 10 10 10 10 10 10
10 10 9 9 9 9 9 10 10 10 10 9 8 9 8 7 7 6 6 6 6 5 6 7 6 7 7 8 8 9 9 9 9 10 10 10 11 12 12 12 12 12 12
10 10 9 8 8 8 9 9 10 10 9 9 8 8 8 7 7 7 7 7 7 6 7 7 7 7 6 7 7 7 7 9 9 10 11 11 12 12 13 13 13 13 13
10 10 9 8 8 8 9 9 9 10 9 9 9 8 8 7 7 7 8 8 8 7 8 9 8 7 6 7 7 8 7 8 9 10 11 12 13 14 14 15 15 14 15
9 9 9 8 8 9 9 8 9 9 9 9 8 8 7 8 8 8 9 9 9 9 10 10 9 8 7 7 7 8 8 8 9 10 11 12 13 14 15 15 16 16 16
8 8 8 8 7 8 9 9 9 9 9 8 8 8 8 8 8 9 9 9 9 10 10 11 10 8 8 8 8 8 8 9 9 10 11 12 13 14 15 15 15 16 17
8 8 8 7 7 7 8 8 8 9 10 10 9 9 9 9 9 9 9 10 10 10 10 10 10 8 9 8 8 8 8 8 8 10 11 12 13 13 14 15 16 17 17
9 9 8 7 7 8 9 8 9 9 10 10 10 10 10 10 9 9 9 10 10 10 10 10 10 8 8 8 8 8 9 9 10 10 11 13 14 14 15 16 16 18 18
9 10 9 8 8 9 9 9 9 9 10 10 10 10 10 9 9 10 10 11 11 10 10 10 11 10 10 11 10 10 10 11 12 11 12 13 14 15 16 16 16 17 19
11 11 10 9 9 9 10 10 10 10 10 11 11 10 10 9 10 11 11 12 12 12 12 12 12 12 12 12 12 13 13 12 13 12 13 14 15 16 16 16 17 18 18
12 12 12 10 10 10 11 11 11 11 11 12 11 11 11 10 11 12 12 13 13 13 13 13 13 14 14 14 14 15 15 15 15 15 16 16 16 17 17 18 18 19 20
Wind_Direction
67 73 79 83 82 82 80 82 84 86 85 89 91 90 91 95 100 100 101 104 117 128 139 152 154 157 161 162 162 159 161 147 148 147 129 134 148 145 138 137 130 120 140
68 73 78 82 82 82 82 80 81 82 82 83 85 88 92 91 92 95 94 101 117 129 142 158 166 173 179 183 175 167 162 160 175 163 142 160 181 174 169 169 175 169 166
69 74 76 77 78 79 79 76 74 76 79 82 82 83 88 87 90 90 95 97 111 127 137 153 168 176 179 180 177 170 171 170 177 172 165 188 202 206 196 210 194 175 178
68 75 77 77 76 76 76 75 76 77 78 78 76 79 82 80 86 84 88 83 94 129 145 144 155 166 175 174 181 182 187 190 193 195 198 212 201 218 209 209 189 169 172
67 74 78 79 75 77 76 73 73 74 72 70 68 69 74 78 81 72 78 84 75 101 121 131 135 156 165 170 180 189 200 200 197 205 198 204 227 236 222 217 216 211 202
70 73 77 78 76 77 76 73 70 70 67 65 62 61 64 69 70 68 72 80 62 65 134 144 147 148 164 176 181 189 190 194 198 207 207 218 226 229 224 225 222 214 212
73 75 74 75 76 76 75 73 70 65 61 57 55 53 54 58 62 60 62 54 56 59 172 187 185 196 191 179 176 181 187 198 200 207 208 214 225 228 228 227 223 225 221
69 71 71 73 72 72 71 69 65 59 57 55 52 49 46 44 42 43 32 29 28 28 350 259 240 238 223 212 201 207 209 213 217 210 210 220 226 236 235 230 227 227 227
67 67 67 71 69 71 70 66 62 56 50 46 44 44 42 34 26 24 17 3 340 330 332 279 250 244 224 219 223 224 229 231 233 236 247 258 252 244 240 233 230 229 224
64 65 68 72 70 69 66 61 58 52 45 41 39 40 37 31 23 11 356 342 315 309 308 299 267 250 240 244 241 237 236 240 246 251 258 265 266 254 249 245 234 232 232
64 64 66 68 67 66 64 60 53 47 42 38 37 41 39 32 24 9 354 341 321 312 304 308 278 257 248 247 247 243 244 247 250 253 257 261 262 255 248 246 242 238 237
58 61 60 63 64 64 62 56 51 47 46 42 42 46 41 33 26 5 5 343 317 310 302 291 277 262 252 245 244 245 247 252 251 254 255 256 253 254 250 245 246 248 246
52 52 56 59 57 55 52 49 47 45 44 42 44 43 40 38 35 23 22 9 348 318 295 289 280 272 265 255 251 252 252 253 249 248 250 250 249 255 256 246 246 249 250
50 50 54 53 52 52 48 46 46 46 44 40 37 38 34 34 35 24 12 357 347 332 317 303 290 279 272 265 258 257 255 250 246 241 245 248 251 256 255 247 250 251 249
52 50 50 49 49 48 44 41 38 39 40 37 30 29 25 20 24 24 14 358 344 333 328 312 305 295 279 268 262 264 258 253 248 243 241 246 251 254 251 246 250 252 251
47 44 43 42 44 43 42 40 38 38 36 31 26 23 20 20 16 13 10 4 356 345 338 327 303 293 283 276 273 272 263 255 252 250 248 248 249 253 253 250 255 254 255
41 38 36 35 37 39 41 39 36 34 31 27 25 23 16 12 12 9 3 359 359 348 339 330 314 296 290 285 281 276 267 262 257 255 253 252 251 252 253 252 254 257 257
30 31 29 32 34 37 37 33 30 26 22 20 17 13 8 3 355 0 358 355 351 342 338 334 320 308 297 289 284 281 274 265 257 257 254 253 254 254 254 252 252 255 255
22 21 24 27 28 24 24 23 21 20 16 11 7 6 5 2 355 357 357 352 344 337 340 341 330 316 305 294 283 281 277 269 263 262 261 260 260 259 256 253 253 254 254
13 12 15 17 16 13 11 11 11 9 7 4 1 359 0 358 356 349 349 348 348 345 347 344 330 317 309 302 294 287 283 278 269 269 265 263 262 263 259 256 255 256 255
2 3 6 6 1 359 358 356 357 357 358 357 359 357 353 351 350 346 346 343 342 346 350 351 346 338 327 315 309 301 288 280 271 272 272 267 265 262 259 258 256 256 256
352 350 356 352 345 345 346 346 350 351 352 353 353 352 346 341 339 339 341 339 339 343 347 346 342 338 332 326 317 307 300 296 286 283 280 273 271 268 265 262 260 260 260
349 347 345 345 336 336 339 341 343 341 341 341 343 344 340 339 337 334 334 334 333 334 333 332 332 327 324 318 313 306 302 299 292 288 282 275 273 272 270 269 268 266 265
331 337 337 340 336 334 331 329 332 331 330 332 332 333 331 331 333 332 329 325 325 325 323 323 322 320 315 310 306 303 299 298 292 286 284 281 278 277 276 274 273 272 270
328 326 329 332 328 329 332 328 325 324 325 324 323 322 321 321 323 323 324 322 319 317 317 315 313 312 307 304 300 297 297 297 293 285 285 283 281 280 279 277 276 274 275
329 324 320 324 321 322 324 322 324 322 320 318 316 315 317 315 314 314 314 313 313 313 312 311 309 308 306 302 298 295 294 293 293 290 286 284 286 284 282 280 278 276 274
Height
5877 5876 5876 5876 5876 5876 5876 5875 5875 5875 5875 5876 5876 5877 5877 5878 5878 5879 5880 5881 5881 5882 5883 5884 5885 5885 5886 5887 5888 5888 5889 5890 5890 5891 5891 5891 5892 5892 5892 5893 5893 5893 5893
5878 5878 5877 5877 5877 5877 5877 5877 5877 5877 5877 5877 5878 5878 5878 5878 5879 5880 5880 5881 5882 5883 5883 5884 5885 5885 5886 5886 5887 5888 5889 5890 5890 5891 5891 5891 5892 5892 5892 5893 5893 5893 5894
5879 5878 5878 5878 5878 5878 5878 5878 5878 5878 5878 5878 5878 5878 5879 5879 5880 5880 5881 5881 5882 5883 5883 5884 5884 5885 5886 5886 5887 5888 5889 5889 5890 5890 5891 5891 5892 5892 5892 5893 5893 5893 5894
5880 5879 5879 5879 5879 5879 5879 5879 5879 5879 5879 5879 5879 5879 5880 5880 5880 5881 5881 5882 5882 5883 5883 5884 5884 5885 5886 5886 5887 5888 5889 5889 5890 5890 5891 5891 5892 5892 5892 5893 5893 5893 5894
5880 5880 5880 5880 5880 5880 5880 5880 5880 5880 5880 5880 5880 5880 5880 5881 5881 5881 5881 5881 5882 5883 5883 5883 5884 5885 5886 5886 5887 5887 5888 5889 5889 5890 5891 5891 5891 5892 5892 5893 5893 5893 5894
5881 5881 5881 5881 5881 5881 5881 5881 5881 5881 5881 5881 5881 5881 5881 5882 5882 5882 5881 5881 5882 5883 5882 5883 5884 5885 5886 5886 5887 5887 5888 5888 5889 5890 5890 5891 5891 5891 5892 5892 5893 5893 5893
5883 5883 5882 5882 5882 5882 5882 5882 5882 5882 5882 5882 5882 5882 5882 5882 5882 5882 5882 5882 5882 5883 5883 5883 5884 5885 5885 5886 5887 5887 5888 5888 5889 5889 5890 5890 5890 5890 5891 5892 5892 5893 5893
5884 5884 5884 5884 5883 5883 5883 5883 5883 5883 5883 5883 5883 5883 5883 5883 5883 5883 5883 5883 5883 5883 5883 5883 5884 5884 5885 5886 5886 5887 5888 5888 5889 5889 5889 5890 5890 5890 5890 5891 5892 5892 5893
5887 5886 5885 5885 5885 5884 5884 5884 5884 5884 5884 5883 5883 5883 5883 5883 5883 5883 5882 5883 5883 5882 5883 5883 5883 5884 5885 5885 5886 5887 5887 5888 5888 5889 5889 5890 5890 5890 5890 5890 5891 5892 5892
5889 5888 5887 5887 5886 5886 5886 5885 5885 5885 5884 5884 5883 5883 5883 5883 5882 5882 5882 5882 5882 5882 5883 5883 5883 5883 5884 5885 5885 5886 5887 5887 5888 5888 5889 5889 5889 5889 5889 5890 5890 5891 5891
5891 5890 5889 5889 5888 5887 5887 5886 5886 5886 5885 5884 5884 5884 5883 5883 5882 5882 5882 5882 5882 5882 5882 5882 5882 5883 5883 5884 5884 5885 5886 5886 5887 5887 5888 5888 5888 5888 5889 5889 5889 5890 5890
5893 5892 5891 5890 5890 5889 5888 5887 5887 5886 5886 5885 5885 5884 5884 5883 5883 5882 5882 5882 5882 5881 5881 5881 5881 5882 5882 5883 5883 5884 5884 5885 5885 5886 5886 5887 5887 5887 5888 5888 5889 5889 5889
5894 5893 5892 5892 5891 5890 5889 5889 5888 5887 5886 5886 5886 5885 5884 5883 5883 5882 5882 5882 5881 5881 5881 5881 5881 5881 5881 5881 5882 5882 5882 5883 5883 5884 5885 5885 5886 5886 5887 5887 5888 5888 5888
5896 5895 5894 5893 5892 5891 5891 5890 5889 5888 5887 5887 5886 5886 5885 5884 5883 5883 5882 5882 5881 5881 5881 5880 5880 5880 5880 5880 5880 5880 5881 5881 5881 5882 5883 5884 5884 5885 5885 5886 5886 5887 5887
5897 5896 5895 5894 5894 5893 5892 5891 5890 5889 5888 5888 5887 5886 5885 5884 5883 5882 5882 5882 5881 5881 5880 5880 5880 5879 5879 5879 5879 5879 5879 5879 5880 5880 5881 5882 5882 5883 5883 5884 5885 5885 5886
5898 5898 5897 5896 5894 5893 5892 5892 5891 5890 5889 5888 5887 5886 5885 5885 5884 5883 5882 5881 5881 5880 5880 5879 5878 5878 5878 5877 5877 5877 5877 5877 5878 5878 5879 5879 5880 5881 5882 5882 5883 5883 5884
5899 5898 5897 5896 5895 5894 5893 5892 5892 5891 5890 5888 5887 5886 5885 5884 5884 5883 5882 5882 5881 5880 5879 5878 5877 5877 5876 5875 5875 5875 5875 5876 5876 5877 5877 5877 5878 5879 5879 5880 5881 5881 5881
5900 5899 5898 5897 5896 5895 5894 5893 5892 5891 5890 5889 5887 5886 5885 5884 5883 5883 5882 5881 5880 5879 5878 5877 5876 5875 5874 5874 5874 5874 5874 5874 5874 5874 5875 5875 5876 5876 5877 5877 5878 5878 5879
5901 5899 5898 5897 5896 5895 5894 5893 5892 5891 5890 5889 5887 5886 5885 5884 5883 5882 5881 5880 5879 5878 5877 5876 5874 5874 5873 5873 5872 5872 5872 5872 5872 5872 5873 5873 5873 5873 5874 5874 5875 5875 5875
5901 5900 5899 5897 5896 5895 5894 5893 5892 5891 5890 5889 5887 5886 5885 5884 5882 5881 5880 5879 5878 5877 5876 5874 5873 5872 5872 5871 5870 5870 5870 5870 5870 5870 5870 5870 5870 5870 5870 5871 5871 5871 5872
5901 5900 5899 5897 5896 5895 5894 5893 5892 5891 5890 5888 5887 5885 5884 5883 5882 5881 5879 5878 5877 5876 5874 5873 5872 5871 5870 5869 5869 5868 5868 5867 5867 5867 5867 5867 5867 5867 5867 5867 5867 5867 5868
5900 5899 5898 5897 5895 5894 5893 5892 5891 5890 5889 5887 5886 5884 5883 5882 5881 5880 5878 5877 5876 5875 5873 5872 5871 5870 5869 5868 5867 5866 5866 5866 5865 5865 5864 5864 5864 5864 5864 5863 5863 5863 5864
5899 5898 5897 5895 5894 5893 5892 5891 5890 5889 5888 5886 5885 5884 5882 5881 5880 5879 5877 5876 5874 5873 5872 5871 5870 5868 5867 5866 5865 5865 5864 5863 5863 5862 5862 5861 5861 5860 5860 5860 5860 5860 5860
5898 5897 5895 5894 5893 5892 5890 5889 5888 5887 5886 5885 5883 5882 5881 5879 5878 5877 5876 5874 5873 5872 5871 5869 5868 5867 5865 5864 5863 5862 5862 5861 5860 5860 5859 5858 5858 5857 5857 5856 5856 5856 5856
5897 5895 5894 5893 5892 5890 5889 5888 5887 5885 5884 5883 5881 5880 5878 5877 5876 5875 5874 5872 5871 5870 5868 5867 5866 5865 5863 5862 5861 5860 5859 5858 5857 5856 5855 5855 5854 5853 5853 5852 5852 5851 5851
5896 5894 5892 5891 5890 5888 5887 5886 5885 5883 5882 5880 5879 5877 5876 5875 5874 5872 5871 5870 5868 5867 5865 5864 5863 5862 5860 5859 5857 5856 5855 5854 5853 5852 5852 5851 5850 5849 5848 5848 5847 5846 5846